Flagstaff, AZ

7:46 PM MST on November 22, 2017 (GMT -0700)
Flagstaff Pulliam

Weather History for KFLG - December, 2012

Change the Weather History Date:

Friday, December 14, 2012

  Actual Average Record
Temperature  
Mean Temperature 30 °F 29 °F  
Max Temperature 33 °F 42 °F 66 °F (1946)
Min Temperature 26 °F 17 °F -14 °F (1972)
Degree Days  
Heating Degree Days 35 36  
Month to date heating degree days 406 485  
Since 1 July heating degree days 1849 2217  
Cooling Degree Days 0 0  
Month to date cooling degree days 0 0  
Year to date cooling degree days 164 117  
Moisture  
Dew Point 27 °F    
Average Humidity 91    
Maximum Humidity 100    
Minimum Humidity 81    
Precipitation  
Precipitation 0.85 in 0.06 in 1.41 in (1967)
Month to date precipitation 0.93 0.80  
Year to date precipitation 13.74 20.79  
Snow  
Snow 8.60 in 0.50 in 15.50 in (1967)
Month to date snowfall 8.6 7.2  
Since 1 July snowfall 9.7 19.4  
Snow Depth 3.00 in    
Sea Level Pressure  
Sea Level Pressure 29.72 in    
Wind  
Wind Speed 16 mph (SSW)    
Max Wind Speed 30 mph    
Max Gust Speed 40 mph    
Visibility 2 miles    
Events Fog , Snow    
T = Trace of Precipitation, MM = Missing Value Source: NWS Daily Summary

Daily Weather History Graph

Daily Weather History Graph

Search for Another Location

Airport or City:

Trip Planner

Search our weather history database for the weather conditions in past years. The results will help you decide how hot, cold, wet, or windy it might be!

Date:

Astronomy

Dec. 14, 2012 Rise Set
Actual Time 7:27 AM MST 5:15 PM MST
Civil Twilight 6:59 AM MST 5:44 PM MST
Nautical Twilight 6:27 AM MST 6:15 PM MST
Astronomical Twilight 5:56 AM MST 6:46 PM MST
Moon 8:37 AM MST (12/14) 7:10 PM MST (12/14)
Length of Visible Light 10h 44m
Length of Day
9h 48m
Waxing Crescent, 3% of the Moon is Illuminated
Dec 14
Waxing Crescent
Dec 19
First Quarter
Dec 28
Full
Jan 4
Last Quarter
Jan 11
New

Hourly Weather History & Observations

Time (MST) Temp. Windchill Dew Point Humidity Pressure Visibility Wind Dir Wind Speed Gust Speed Precip Events Conditions
12:06 AM 33.8 °F 27.7 °F 32.0 °F 93% 29.77 in 1.8 mi East 6.9 mph - 0.00 in Snow Light Snow
12:17 AM 33.8 °F 27.7 °F 30.2 °F 87% 29.74 in 0.8 mi ENE 6.9 mph - 0.03 in Snow Light Snow
12:57 AM 33.1 °F - 32.0 °F 96% 29.63 in 1.8 mi Calm Calm - 0.12 in Snow Light Snow
1:05 AM 33.8 °F 29.6 °F 32.0 °F 93% 29.73 in 2.0 mi ENE 4.6 mph - 0.00 in Snow Light Snow
1:17 AM 32.0 °F 26.4 °F 30.2 °F 93% 29.72 in 3.0 mi ENE 5.8 mph - 0.01 in Snow Light Snow
1:25 AM 32.0 °F 26.4 °F 32.0 °F 100% 29.71 in 2.0 mi ENE 5.8 mph - 0.01 in Snow Light Snow
1:43 AM 32.0 °F 27.5 °F 32.0 °F 100% 29.70 in 1.2 mi East 4.6 mph - 0.02 in Snow Light Snow
1:57 AM 32.0 °F 27.5 °F 32.0 °F 100% 29.59 in 1.5 mi ENE 4.6 mph - 0.03 in Snow Light Snow
2:13 AM 33.8 °F 30.8 °F 32.0 °F 93% 29.68 in 3.0 mi East 3.5 mph - 0.02 in Snow Light Snow
2:33 AM 32.0 °F 27.5 °F 32.0 °F 100% 29.67 in 1.8 mi NE 4.6 mph - 0.02 in Snow Light Snow
2:42 AM 32.0 °F 27.5 °F 30.2 °F 93% 29.67 in 1.2 mi NE 4.6 mph - 0.03 in Snow Light Snow
2:50 AM 32.0 °F 28.7 °F 30.2 °F 93% 29.66 in 1.8 mi ENE 3.5 mph - 0.03 in Snow Light Snow
2:57 AM 32.0 °F 26.4 °F 30.9 °F 96% 29.57 in 2.0 mi ENE 5.8 mph - 0.04 in Snow Light Snow
3:04 AM 32.0 °F 27.5 °F 30.2 °F 93% 29.65 in 1.8 mi ENE 4.6 mph - 0.00 in Snow Light Snow
3:30 AM 32.0 °F - 32.0 °F 100% 29.66 in 0.2 mi Calm Calm - 0.05 in Fog , Snow Heavy Snow
3:50 AM 32.0 °F 23.6 °F 30.2 °F 93% 29.66 in 0.8 mi SW 10.4 mph - 0.14 in Snow Light Snow
3:57 AM 32.0 °F 22.1 °F 30.9 °F 96% 29.58 in 0.5 mi SW 13.8 mph - 0.16 in Fog , Snow Snow
4:06 AM 32.0 °F 22.1 °F 30.2 °F 93% 29.65 in 0.2 mi WSW 13.8 mph 23.0 mph 0.01 in Fog , Snow Heavy Snow
4:22 AM 32.0 °F 24.8 °F 30.2 °F 93% 29.65 in 0.5 mi SW 8.1 mph - 0.09 in Fog , Snow Snow
4:47 AM 30.2 °F 25.4 °F 30.2 °F 100% 29.64 in 1.0 mi SW 4.6 mph - 0.13 in Snow Light Snow
4:53 AM 30.2 °F 23.4 °F 30.2 °F 100% 29.64 in 3.0 mi SW 6.9 mph - 0.13 in Snow Light Snow
4:57 AM 30.9 °F 25.2 °F 30.0 °F 96% 29.57 in 3.0 mi SW 5.8 mph - 0.13 in Snow Light Snow
5:00 AM 30.2 °F 26.7 °F 30.2 °F 100% 29.64 in 1.8 mi Variable 3.5 mph - 0.00 in Snow Light Snow
5:22 AM 30.2 °F 25.4 °F 30.2 °F 100% 29.64 in 0.8 mi SSW 4.6 mph - 0.02 in Snow Light Snow
5:30 AM 30.2 °F 20.2 °F 30.2 °F 100% 29.64 in 0.5 mi SSW 12.7 mph 19.6 mph 0.03 in Fog , Snow Snow
5:57 AM 30.9 °F 19.1 °F 28.9 °F 92% 29.57 in 0.8 mi SSW 18.4 mph 26.5 mph 0.07 in Snow Light Snow
6:18 AM 30.2 °F 21.3 °F 30.2 °F 100% 29.62 in 0.2 mi South 10.4 mph 26.5 mph 0.03 in Fog , Snow Heavy Snow
6:24 AM 30.2 °F 19.8 °F 28.4 °F 93% 29.63 in 1.0 mi SSW 13.8 mph - 0.04 in Snow Light Snow
6:29 AM 30.2 °F 20.8 °F 28.4 °F 93% 29.63 in 2.0 mi SSW 11.5 mph - 0.04 in Snow Light Snow
6:37 AM 30.2 °F 20.2 °F 28.4 °F 93% 29.63 in 1.2 mi SSW 12.7 mph 18.4 mph 0.05 in Snow Light Snow
6:44 AM 30.2 °F 18.5 °F 28.4 °F 93% 29.64 in 1.0 mi SSW 17.3 mph 25.3 mph 0.05 in Snow Light Snow
6:48 AM 30.2 °F 19.8 °F 28.4 °F 93% 29.64 in 0.8 mi SSW 13.8 mph 25.3 mph 0.05 in Snow Light Snow
6:57 AM 30.9 °F 20.7 °F 30.0 °F 96% 29.56 in 1.2 mi SSW 13.8 mph - 0.06 in Snow Light Snow
7:26 AM 30.2 °F 19.8 °F 28.4 °F 93% 29.65 in 0.5 mi WSW 13.8 mph - 0.02 in Fog , Snow Snow
7:57 AM 30.0 °F 22.4 °F 28.9 °F 96% 29.61 in 1.5 mi WSW 8.1 mph - 0.05 in Snow Light Snow
8:08 AM 30.2 °F 21.9 °F 28.4 °F 93% 29.66 in 0.5 mi SW 9.2 mph - 0.01 in Fog , Snow Light Snow
8:42 AM 30.2 °F 17.1 °F 28.4 °F 93% 29.67 in 2.0 mi SW 21.9 mph 28.8 mph 0.03 in Snow Light Snow
8:57 AM 28.9 °F 15.4 °F 27.0 °F 92% 29.64 in 1.5 mi SW 21.9 mph 29.9 mph 0.03 in Snow Light Snow
9:26 AM 28.4 °F 14.7 °F 26.6 °F 93% 29.70 in 0.8 mi SSW 21.9 mph 38.0 mph 0.00 in Snow Light Snow
9:57 AM 28.0 °F 16.1 °F 26.1 °F 92% 29.67 in 0.2 mi SW 16.1 mph 27.6 mph 0.03 in Fog , Snow Snow
10:10 AM 28.4 °F 15.8 °F 26.6 °F 93% 29.72 in 0.5 mi SW 18.4 mph 26.5 mph 0.01 in Fog , Snow Snow
10:30 AM 28.4 °F 14.1 °F 26.6 °F 93% 29.73 in 2.0 mi SSW 24.2 mph 35.7 mph 0.01 in Snow Light Snow
10:55 AM 28.4 °F 15.4 °F 26.6 °F 93% 29.76 in 1.0 mi SSW 19.6 mph 29.9 mph 0.01 in Snow Light Snow
10:57 AM 28.0 °F 14.6 °F 25.0 °F 88% 29.71 in 0.8 mi SSW 20.7 mph 29.9 mph 0.01 in Snow Light Snow
11:13 AM 28.4 °F 15.1 °F 24.8 °F 86% 29.77 in 1.0 mi SSW 20.7 mph 28.8 mph 0.00 in Snow Light Snow
11:20 AM 28.4 °F 14.7 °F 24.8 °F 86% 29.77 in 0.8 mi SW 21.9 mph 28.8 mph 0.00 in Snow Light Snow
11:31 AM 28.4 °F 15.1 °F 24.8 °F 86% 29.77 in 2.0 mi SW 20.7 mph - 0.00 in Snow Light Snow
11:57 AM 28.0 °F 15.7 °F 25.0 °F 88% 29.73 in 2.0 mi SSW 17.3 mph 27.6 mph 0.04 in Snow Light Snow
12:04 PM 26.6 °F 12.0 °F 24.8 °F 93% 29.77 in 0.8 mi SSW 23.0 mph 28.8 mph 0.00 in Snow Light Snow
12:39 PM 26.6 °F 12.7 °F 24.8 °F 93% 29.76 in 0.2 mi SSW 20.7 mph 29.9 mph 0.01 in Fog , Snow Snow
12:57 PM 27.0 °F 12.8 °F 25.0 °F 92% 29.73 in 0.2 mi SW 21.9 mph 29.9 mph 0.02 in Fog , Snow Heavy Snow
1:04 PM 26.6 °F 13.8 °F 24.8 °F 93% 29.76 in 0.5 mi SW 17.3 mph 29.9 mph 0.00 in Fog , Snow Snow
1:57 PM 26.1 °F 11.3 °F 24.1 °F 92% 29.75 in 0.8 mi SSW 23.0 mph 31.1 mph 0.01 in Snow Light Snow
2:57 PM 26.1 °F 11.6 °F 24.1 °F 92% 29.80 in 0.8 mi SW 21.9 mph 32.2 mph 0.01 in Snow Light Snow
3:06 PM 26.6 °F 11.7 °F 24.8 °F 93% 29.82 in 0.8 mi SW 24.2 mph 29.9 mph 0.00 in Snow Light Snow
3:14 PM 26.6 °F 12.4 °F 24.8 °F 93% 29.82 in 1.2 mi SW 21.9 mph 29.9 mph 0.00 in Snow Light Snow
3:31 PM 26.6 °F 12.0 °F 23.0 °F 86% 29.83 in 2.5 mi SW 23.0 mph 28.8 mph 0.00 in Snow Light Snow
3:34 PM 26.6 °F 13.8 °F 23.0 °F 86% 29.83 in 3.0 mi SW 17.3 mph 28.8 mph 0.00 in Snow Light Snow
3:43 PM 26.6 °F 12.0 °F 23.0 °F 86% 29.83 in 4.0 mi SW 23.0 mph 32.2 mph 0.00 in   Overcast
3:57 PM 26.1 °F 12.0 °F 23.0 °F 88% 29.82 in 5.0 mi SW 20.7 mph 26.5 mph 0.00 in   Overcast
4:28 PM 26.6 °F 12.7 °F 24.8 °F 93% 29.84 in 6.0 mi SW 20.7 mph 28.8 mph 0.00 in Snow Light Snow
4:57 PM 27.0 °F 13.2 °F 24.1 °F 89% 29.84 in 3.0 mi SW 20.7 mph 33.4 mph 0.00 in Snow Light Snow
5:57 PM 26.1 °F 10.7 °F 23.0 °F 88% 29.86 in 8.0 mi SW 25.3 mph 33.4 mph 0.00 in   Overcast
6:48 PM 26.6 °F 13.4 °F 23.0 °F 86% 29.89 in 10.0 mi SW 18.4 mph 27.6 mph N/A   Overcast
6:57 PM 26.1 °F 13.6 °F 23.0 °F 88% 29.89 in 10.0 mi SW 16.1 mph 26.5 mph N/A   Overcast
7:45 PM 26.6 °F 13.4 °F 23.0 °F 86% 29.91 in 10.0 mi SW 18.4 mph 25.3 mph N/A   Overcast
7:57 PM 26.1 °F 14.5 °F 23.0 °F 88% 29.91 in 10.0 mi SW 13.8 mph 19.6 mph N/A   Overcast
8:57 PM 26.1 °F 13.6 °F 21.9 °F 84% 29.93 in 10.0 mi SW 16.1 mph - N/A   Overcast
9:57 PM 26.1 °F 14.0 °F 23.0 °F 88% 29.93 in 10.0 mi SW 15.0 mph 20.7 mph N/A   Overcast
10:57 PM 27.0 °F 17.3 °F 24.1 °F 89% 29.91 in 1.5 mi WSW 10.4 mph - 0.00 in Snow Light Snow
11:13 PM 26.6 °F 16.8 °F 24.8 °F 93% 29.91 in 0.8 mi WSW 10.4 mph 17.3 mph 0.02 in Snow Light Snow
11:57 PM 27.0 °F 20.5 °F 25.0 °F 92% 29.89 in 1.0 mi WSW 5.8 mph - 0.04 in Snow Light Snow